Location: Cahas Mountain Overlook
(37.0833°N, 80.1000°W)
Time: 14:49:29
(UTC-05:00)

Explorer 7 - All Passes

Search period start: 08 February 2026 00:00
Search period end: 18 February 2026 00:00
Orbit: 431 x 546 km, 50.2° (Epoch: 8 February)

Date Brightness Start Highest point End Pass type
(mag) Time Alt. Az. Time Alt. Az. Time Alt. Az.
8 Feb - 00:10:26 10° NNW 00:13:49 25° NNE 00:17:14 10° E night (unlit)
8 Feb - 01:48:32 10° WNW 01:52:37 66° SW 01:56:42 10° SE night (unlit)
8 Feb - 17:09:39 10° SSE 17:11:52 15° SE 17:14:07 10° E daylight
8 Feb - 18:46:17 10° WSW 18:49:55 60° NW 18:53:44 10° NE visible
8 Feb - 20:26:33 10° WNW 20:29:03 16° NNW 20:31:36 10° NNE visible
8 Feb - 22:07:09 10° NNW 22:08:50 12° N 22:10:33 10° NNE night (unlit)
8 Feb - 23:45:07 10° NNW 23:48:27 24° NNE 23:51:49 10° E night (unlit)
9 Feb - 01:23:11 10° NW 01:27:15 69° SW 01:31:21 10° SE night (unlit)
9 Feb - 16:44:28 10° SSE 16:46:31 15° SE 16:48:37 10° E daylight
9 Feb - 18:20:56 10° WSW 18:24:33 62° NW 18:28:20 10° NE visible
9 Feb - 20:01:09 10° WNW 20:03:39 16° NNW 20:06:12 10° NNE visible
9 Feb - 21:41:48 10° NNW 21:43:25 12° N 21:45:04 10° NNE night (unlit)
9 Feb - 23:19:46 10° NNW 23:23:03 23° NNE 23:26:21 10° ENE night (unlit)
10 Feb - 00:57:47 10° NW 01:01:52 73° SW 01:05:58 10° SE night (unlit)
10 Feb - 16:19:16 10° SSE 16:21:09 14° SE 16:23:04 10° E daylight
10 Feb - 17:55:32 10° WSW 17:59:08 65° NW 18:02:55 10° NE daylight
10 Feb - 19:35:43 10° WNW 19:38:13 17° NNW 19:40:46 10° NNE visible
10 Feb - 21:16:25 10° NNW 21:17:58 12° N 21:19:33 10° NNE visible
10 Feb - 22:54:23 10° NNW 22:57:35 23° NNE 23:00:52 10° ENE night (unlit)
11 Feb - 00:32:22 10° NW 00:36:25 76° SW 00:40:32 10° SE night (unlit)
11 Feb - 15:54:02 10° SSE 15:55:43 13° SE 15:57:27 10° E daylight
11 Feb - 17:30:07 10° WSW 17:33:41 68° NW 17:37:27 10° NE daylight
11 Feb - 19:10:15 10° WNW 19:12:45 17° NNW 19:15:18 10° NNE visible
11 Feb - 20:51:00 10° NNW 20:52:29 12° N 20:53:59 10° NNE visible
11 Feb - 22:28:57 10° NNW 22:32:07 22° NNE 22:35:19 10° ENE night (unlit)
12 Feb - 00:06:55 10° NW 00:10:57 79° SW 00:15:04 10° SE night (unlit)
12 Feb - 15:28:48 10° SSE 15:30:16 12° SE 15:31:46 10° ESE daylight
12 Feb - 17:04:39 10° WSW 17:08:13 71° NW 17:11:57 10° NE daylight
12 Feb - 18:44:44 10° WNW 18:47:14 17° NNW 18:49:48 10° NNE visible
12 Feb - 20:25:33 10° NNW 20:26:58 12° N 20:28:23 10° NNE visible
12 Feb - 22:03:30 10° NNW 22:06:35 21° NNE 22:09:45 10° ENE night (unlit)
12 Feb - 23:41:25 10° NW 23:45:27 83° SW 23:49:32 10° SE night (unlit)
13 Feb - 01:22:34 10° WSW 01:23:24 11° SW 01:24:14 10° SW night (unlit)
13 Feb - 15:03:35 10° SSE 15:04:47 11° SE 15:06:00 10° ESE daylight
13 Feb - 16:39:09 10° WSW 16:42:42 74° NW 16:46:25 10° NE daylight
13 Feb - 18:19:11 10° WNW 18:21:41 17° NNW 18:24:16 10° NNE visible
13 Feb - 20:00:04 10° NNW 20:01:24 11° N 20:02:45 10° NNE visible
13 Feb - 21:38:01 10° NNW 21:41:02 21° NNE 21:44:07 10° ENE night (unlit)
13 Feb - 23:15:54 10° NW 23:19:54 86° SW 23:24:00 10° SE night (unlit)
14 Feb - 00:56:42 10° WSW 00:57:53 11° SW 00:59:04 10° SW night (unlit)
14 Feb - 14:38:26 10° SE 14:39:16 11° SE 14:40:06 10° ESE daylight
14 Feb - 16:13:37 10° SW 16:17:09 78° NW 16:20:51 10° NE daylight
14 Feb - 17:53:35 10° WNW 17:56:06 17° NNW 17:58:41 10° NNE daylight
14 Feb - 19:34:33 10° NNW 19:35:48 11° N 19:37:04 10° NNE visible
14 Feb - 21:12:29 10° NNW 21:15:26 20° NNE 21:18:27 10° ENE visible
14 Feb - 22:50:20 10° NW 22:54:19 90° WSW 22:58:24 10° SE night (unlit)
15 Feb - 00:30:53 10° WSW 00:32:19 12° SW 00:33:45 10° SSW night (unlit)
15 Feb - 15:48:03 10° SW 15:51:34 82° NW 15:55:14 10° NE daylight
15 Feb - 17:27:58 10° WNW 17:30:29 18° NNW 17:33:05 10° NNE daylight
15 Feb - 19:08:59 10° NNW 19:10:10 11° N 19:11:22 10° NNE visible
15 Feb - 20:46:56 10° NNW 20:49:48 19° NNE 20:52:45 10° ENE visible
15 Feb - 22:24:44 10° NW 22:28:42 86° NE 22:32:46 10° SE night (unlit)
16 Feb - 00:05:04 10° WSW 00:06:43 12° SW 00:08:22 10° SSW night (unlit)
16 Feb - 15:22:27 10° SW 15:25:57 86° NW 15:29:35 10° NE daylight
16 Feb - 17:02:18 10° WNW 17:04:50 18° NNW 17:07:26 10° NNE daylight
16 Feb - 18:43:24 10° NNW 18:44:30 11° N 18:45:36 10° NNE visible
16 Feb - 20:21:20 10° NNW 20:24:08 19° NNE 20:27:00 10° ENE visible
16 Feb - 21:59:07 10° NW 22:03:03 83° NE 22:07:05 10° SE night (unlit)
16 Feb - 23:39:15 10° W 23:41:04 13° SW 23:42:55 10° SSW night (unlit)
17 Feb - 14:56:49 10° SW 15:00:17 89° SSE 15:03:53 10° NE daylight
17 Feb - 16:36:35 10° WNW 16:39:09 18° NNW 16:41:45 10° NNE daylight
17 Feb - 18:17:46 10° NNW 18:18:47 11° N 18:19:48 10° NNE daylight
17 Feb - 19:55:42 10° NNW 19:58:25 18° NNE 20:01:13 10° ENE visible
17 Feb - 21:33:27 10° NW 21:37:21 79° NE 21:41:22 10° SE visible
17 Feb - 23:13:25 10° W 23:15:24 13° SW 23:17:24 10° SSW night (unlit)
